Погода в Водзимонье

Россия / Удмуртская Республика     56°48′56″N   51°37′17″E
темп.,
°C
ветер,
м/с
пор.,
м/с
влажн.,
%
обл.,
%
осадки,
мм/ч
давл.,
гПа
погр.,
м
23 апреля, пт
пт2301:00+5ю4118996 0.1 1025378
04:00+3ю3793100 0.1 1025208
07:00+4ю4891100 0.0 1027319
10:00+8ю457543 0.0 1027605
13:00+12ю346039 0.0 10261206
16:00+11ююв466499 0.2 1025612
19:00+10юв476939 0.0 1025260
22:00+6вюв3988100 0.1 1024208
24 апреля, сб
сб2401:00+4в499466 0.0 1023201
04:00+4в41093100 0.0 1021275
07:00+4в41088100 0.0 1019374
10:00+6в5885100 0.0 1017543
13:00+5всв4893100 0.7 1016416
16:00+5в4896100 1.8 1014445
19:00+5в4897100 0.3 1013384
22:00+6вюв4995100 0.4 1011553
25 апреля, вс
вс2501:00+5юв4893100 0.1 1009515
04:00+5юв51193100 0.4 1007580
07:00+5вюв61294100 0.9 1004676
10:00+6ю5894100 5.4 1002957
13:00+7ююз5107799 1.0 10031186
16:00+8юз9146552 1.9 10041679
19:00+6зюз7146347 0.3 10071381
22:00+4юз7146998 0.3 1008968
26 апреля, пн
пн2601:00+4юз81668100 0.0 10081254
04:00+3юз91673100 0.0 10091021
07:00+3юз9177197 0.0 10101335
10:00+7зюз917545 0.0 10111799
13:00+9зюз8145786 0.1 10121974
16:00+10зюз8145026 0.6 10122213
19:00+7зюз611615 0.0 1013770
22:00+3юз347895 0.0 101365
27 апреля, вт
вт2701:00+3юз228088 0.0 101326
04:00+1ю118199 0.0 101210
07:00+4юв2472100 0.0 1010140
10:00+9ююв5758100 0.3 10081064
13:00+11ю6842100 0.2 10062206
16:00+9юз81170100 0.4 10061252
19:00+6зюз596647 0.1 1006955
22:00+3зюз49855 0.1 1006287